Regional Weather Roundup
Issued by NWS

Home | Current Version | Previous Version | Graphics & Text | Print | Product List | Glossary On
Versions: 1 2 3 4 5 6 7 8 9 10 11 12 13 14 15 16 17 18 19 20 21 22 23 24 25 26 27 28 29 30 31 32 33 34 35 36 37 38 39 40 41 42 43 44 45 46 47 48 49 50
000
ASUS45 KABQ 020410
RWRNM
WEATHER ROUNDUP FOR NEW MEXICO
NATIONAL WEATHER SERVICE ALBUQUERQUE NM
1000 PM MDT FRI AUG 01 2014

NOTE: "FAIR" MEANS FEW OR NO CLOUDS BELOW 12,000 FEET AGL WITH NO
       SIGNIFICANT WEATHER OR OBSTRUCTIONS TO VISION.

      THIS PRODUCT IS RELEASED AS TWO VERSIONS.  ONE VERSION NEAR
      THE TOP OF THE HOUR CONTAINING PRELIMINARY DATA FROM ALBUQUERQUE
      AND OTHER STATIONS.  A FINAL VERSION WITH ADDITIONAL DATA IS
      ISSUED ABOUT 10 MINUTES AFTER THE HOUR.

NMZ501-503-504-510>518-020500-
NORTHWEST PLATEAU/NORTHCENTRAL MOUNTAINS

CITY           SKY/WX    TMP DP  RH WIND       PRES   REMARKS
FARMINGTON     CLEAR     71  52  50 E14       30.19R
LOS ALAMOS     CLOUDY    56  55  97 NW6       30.42R
SANTA FE       CLOUDY    62  52  69 N22G31    30.33R
TAOS             N/A     57  54  88 CALM      30.41R
ANGEL FIRE     LGT RAIN  54  51  91 CALM      30.50R

$$
NMZ402-403-502-505>509-020500-
WESTCENTRAL MOUNTAINS/SOUTHWEST MOUNTAINS

CITY           SKY/WX    TMP DP  RH WIND       PRES   REMARKS
GALLUP         LGT RAIN  68  55  63 NW13      30.28R

$$
NMZ407-409-411-412-020500-
SOUTHERN DESERTS

CITY           SKY/WX    TMP DP  RH WIND       PRES   REMARKS
LORDSBURG      RAIN      64  63  94 CALM      30.19R
DEMING         MOCLDY    72  63  73 E8        30.16R
LAS CRUCES     CLOUDY    71  60  67 E3        30.19R
HOLLOMAN AFB   DRIZZLE   72  66  83 N2        30.17R
T OR C         CLOUDY    73  59  61 SE10      30.20R

$$
NMZ519>523-020500-
CENTRAL VALLEYS/CENTRAL HIGHLANDS

CITY           SKY/WX    TMP DP  RH WIND       PRES   REMARKS
ALBUQUERQUE    CLOUDY    69  59  70 W10       30.26R
DOUBLE EAGLE   LGT RAIN  66  61  82 VRB5      30.30R
MORIARTY ARPT  FAIR      64  58  79 SE12      30.34R
CLINES CORNERS CLOUDY    60  57  89 SE14      30.37R
BELEN          CLOUDY    68  62  81 E12       30.23R
SOCORRO        FAIR      73  59  62 SE9       30.21R

$$
NMZ524>526-539-540-020500-
SOUTHCENTRAL MOUNTAINS

CITY           SKY/WX    TMP DP  RH WIND       PRES   REMARKS
RUIDOSO        NOT AVBL

$$
NMZ527>531-020500-
NORTHEAST HIGHLANDS/NORTHEAST PLAINS

CITY           SKY/WX    TMP DP  RH WIND       PRES   REMARKS
LAS VEGAS      LGT RAIN  56  53  90 N8        30.41R
RATON          LGT RAIN  58  55  90 NW6       30.38R
CLAYTON        CLOUDY    65  56  72 W9        30.28R

$$
NMZ532>537-020500-
EASTCENTRAL PLAINS

CITY           SKY/WX    TMP DP  RH WIND       PRES   REMARKS
TUCUMCARI      CLOUDY    75  45  34 SE9       30.21R
CANNON AFB     CLOUDY    69  52  55 S5        30.25R
CLOVIS AIRPORT NOT AVBL

$$
NMZ028-029-538-020500-
SOUTHEAST PLAINS

CITY           SKY/WX    TMP DP  RH WIND       PRES   REMARKS
ROSWELL        CLOUDY    73  64  73 NW3       30.19R
ARTESIA        MOCLDY    72  66  83 NW5       30.19R
CARLSBAD       CLOUDY    73  64  73 NW5       30.15R
HOBBS          MOCLDY    75  48  38 NE10G16   30.19R


$$


USA.gov is the U.S. government's official web portal to all federal, state and local government web resources and services.